Weather History for KF46 - May, 2013

Change the Weather History Date:

Sunday, May 12, 2013

  Actual Average (KDFW) Record (KDFW)
Temperature  
Mean Temperature 64 °F 73 °F  
Max Temperature 77 °F 82 °F 98 °F (1978)
Min Temperature 53 °F 63 °F 44 °F (1960)
Degree Days  
Heating Degree Days 0 0  
Month to date heating degree days 6  
Since 1 July heating degree days 2282  
Cooling Degree Days 0 8  
Month to date cooling degree days 81  
Year to date cooling degree days 219  
Growing Degree Days 14 (Base 50)    
Moisture  
Dew Point 42 °F    
Average Humidity 44    
Maximum Humidity 75    
Minimum Humidity 22    
Precipitation  
Precipitation 0.00 in 0.16 in 2.84 in (1930)
Month to date precipitation 1.90  
Year to date precipitation 13.25  
Sea Level Pressure  
Sea Level Pressure 30.20 in    
Wind  
Wind Speed 7 mph (NE)    
Max Wind Speed 15 mph    
Max Gust Speed 22 mph    
Visibility 10 miles    
Events      
T = Trace of Precipitation, MM = Missing Value Source: NWS Daily Summary

Daily Weather History Graph

Daily Weather History Graph

Search for Another Location

Airport or City:

Trip Planner

Search our weather history database for the weather conditions in past years. The results will help you decide how hot, cold, wet, or windy it might be!

Date:

Astronomy

May. 12, 2013 Rise Set
Actual Time 6:28 AM CDT 8:16 PM CDT
Civil Twilight 6:01 AM CDT 8:43 PM CDT
Nautical Twilight 5:28 AM CDT 9:15 PM CDT
Astronomical Twilight 4:54 AM CDT 9:50 PM CDT
Moon 8:26 AM CDT (5/12) 10:42 PM CDT (5/12)
Length of Visible Light 14h 41m
Length of Day
13h 47m
Waxing Crescent, 7% of the Moon is Illuminated
May 12
Waxing Crescent
May 17
First Quarter
May 24
Full
May 31
Last Quarter
Jun 8
New

Hourly Weather History & Observations

Time (CDT) Temp. Dew Point Humidity Pressure Visibility Wind Dir Wind Speed Gust Speed Precip Events Conditions
12:15 AM 62.6 °F 51.6 °F 67% 30.17 in 10.0 mi NW 8.1 mph - N/A   Clear
12:35 AM 62.6 °F 51.8 °F 68% 30.17 in 10.0 mi NNW 5.8 mph - N/A   Clear
12:55 AM 62.1 °F 52.3 °F 70% 30.17 in 10.0 mi North 6.9 mph - N/A   Clear
1:15 AM 61.0 °F 52.7 °F 74% 30.17 in 10.0 mi NNW 6.9 mph - N/A   Clear
1:35 AM 61.0 °F 53.1 °F 75% 30.17 in 10.0 mi North 5.8 mph - N/A   Clear
1:55 AM 61.0 °F 53.1 °F 75% 30.17 in 10.0 mi North 6.9 mph - N/A   Clear
2:15 AM 61.2 °F 52.2 °F 72% 30.17 in 10.0 mi North 8.1 mph - N/A   Clear
2:35 AM 61.7 °F 49.8 °F 65% 30.17 in 10.0 mi North 9.2 mph 21.9 mph N/A   Clear
2:55 AM 61.0 °F 48.9 °F 64% 30.18 in 10.0 mi North 8.1 mph - N/A   Clear
3:15 AM 60.3 °F 48.2 °F 64% 30.18 in 10.0 mi North 9.2 mph - N/A   Clear
3:35 AM 59.0 °F 47.7 °F 66% 30.18 in 10.0 mi North 6.9 mph - N/A   Clear
4:15 AM 57.9 °F 46.4 °F 65% 30.18 in 10.0 mi North 9.2 mph - N/A   Clear
4:35 AM 57.2 °F 45.5 °F 65% 30.19 in 10.0 mi North 9.2 mph - N/A   Clear
4:55 AM 56.8 °F 45.0 °F 64% 30.19 in 10.0 mi North 11.5 mph - N/A   Clear
5:15 AM 56.5 °F 44.1 °F 63% 30.19 in 10.0 mi NNE 9.2 mph - N/A   Clear
5:35 AM 55.8 °F 43.3 °F 63% 30.20 in 10.0 mi North 9.2 mph - N/A   Clear
5:55 AM 55.4 °F 42.8 °F 63% 30.20 in 10.0 mi NNE 9.2 mph - N/A   Clear
6:15 AM 54.5 °F 42.1 °F 63% 30.21 in 10.0 mi NNE 8.1 mph - N/A   Clear
6:35 AM 53.6 °F 41.7 °F 64% 30.22 in 10.0 mi NNE 8.1 mph - N/A   Clear
6:55 AM 53.6 °F 41.7 °F 64% 30.22 in 10.0 mi NE 8.1 mph - N/A   Clear
7:15 AM 54.7 °F 41.4 °F 61% 30.23 in 10.0 mi NE 6.9 mph - N/A   Clear
7:35 AM 55.6 °F 41.7 °F 60% 30.24 in 10.0 mi NNE 6.9 mph - N/A   Clear
7:55 AM 57.2 °F 41.7 °F 56% 30.25 in 10.0 mi NNE 8.1 mph - N/A   Clear
8:15 AM 58.5 °F 41.4 °F 53% 30.24 in 10.0 mi NE 10.4 mph - N/A   Clear
8:35 AM 60.8 °F 40.5 °F 47% 30.25 in 10.0 mi NE 11.5 mph 17.3 mph N/A   Clear
8:55 AM 62.6 °F 40.8 °F 45% 30.25 in 10.0 mi NE 12.7 mph 19.6 mph N/A   Clear
9:15 AM 64.0 °F 40.6 °F 42% 30.25 in 10.0 mi NE 11.5 mph - N/A   Clear
9:35 AM 65.5 °F 39.6 °F 39% 30.26 in 10.0 mi ENE 12.7 mph 18.4 mph N/A   Clear
9:55 AM 66.2 °F 37.4 °F 35% 30.25 in 10.0 mi NE 15.0 mph 21.9 mph N/A   Clear
10:15 AM 67.8 °F 39.2 °F 35% 30.25 in 10.0 mi NE 13.8 mph 18.4 mph N/A   Clear
10:35 AM 68.5 °F 39.7 °F 35% 30.25 in 10.0 mi ENE 10.4 mph 18.4 mph N/A   Clear
10:55 AM 68.9 °F 39.2 °F 34% 30.26 in 10.0 mi East 11.5 mph 18.4 mph N/A   Clear
11:15 AM 69.3 °F 39.0 °F 33% 30.26 in 10.0 mi ENE 6.9 mph - N/A   Clear
11:35 AM 70.3 °F 39.0 °F 32% 30.26 in 10.0 mi ENE 5.8 mph - N/A   Clear
11:55 AM 71.8 °F 40.6 °F 32% 30.26 in 10.0 mi NNE 4.6 mph - N/A   Clear
12:15 PM 71.1 °F 38.1 °F 30% 30.26 in 10.0 mi ENE 5.8 mph - N/A   Clear
12:35 PM 72.9 °F 42.3 °F 33% 30.25 in 10.0 mi ENE 4.6 mph - N/A   Clear
12:55 PM 72.5 °F 40.6 °F 32% 30.25 in 10.0 mi East 5.8 mph - N/A   Clear
1:15 PM 72.3 °F 40.1 °F 31% 30.24 in 10.0 mi East 4.6 mph - N/A   Clear
1:35 PM 73.4 °F 39.0 °F 29% 30.24 in 10.0 mi East 5.8 mph - N/A   Clear
1:55 PM 73.6 °F 38.8 °F 28% 30.23 in 10.0 mi NE 5.8 mph - N/A   Clear
2:15 PM 74.7 °F 39.0 °F 28% 30.23 in 10.0 mi NNE 4.6 mph - N/A   Clear
2:35 PM 74.5 °F 38.3 °F 27% 30.21 in 10.0 mi NE 5.8 mph - N/A   Clear
2:55 PM 73.9 °F 36.3 °F 25% 30.21 in 10.0 mi Calm Calm - N/A   Clear
3:15 PM 73.8 °F 36.7 °F 26% 30.20 in 10.0 mi Calm Calm - N/A   Clear
3:35 PM 75.4 °F 41.7 °F 30% 30.20 in 10.0 mi NNW 3.5 mph - N/A   Clear
3:55 PM 75.7 °F 37.2 °F 25% 30.19 in 10.0 mi Calm Calm - N/A   Clear
4:15 PM 76.1 °F 35.8 °F 23% 30.18 in 10.0 mi SSW 4.6 mph - N/A   Clear
4:35 PM 76.3 °F 36.0 °F 23% 30.18 in 10.0 mi Calm Calm - N/A   Clear
4:55 PM 75.7 °F 35.1 °F 23% 30.17 in 10.0 mi ESE 6.9 mph - N/A   Clear
5:15 PM 76.3 °F 34.7 °F 22% 30.17 in 10.0 mi East 5.8 mph - N/A   Clear
5:35 PM 76.1 °F 36.5 °F 24% 30.17 in 10.0 mi East 5.8 mph - N/A   Clear
5:55 PM 75.4 °F 36.1 °F 24% 30.16 in 10.0 mi East 6.9 mph - N/A   Clear
6:15 PM 75.2 °F 35.4 °F 24% 30.16 in 10.0 mi ESE 5.8 mph - N/A   Clear
6:35 PM 74.8 °F 34.5 °F 23% 30.16 in 10.0 mi ENE 6.9 mph - N/A   Clear
6:55 PM 73.6 °F 35.1 °F 25% 30.15 in 10.0 mi East 3.5 mph - N/A   Clear
7:15 PM 71.8 °F 37.9 °F 29% 30.15 in 10.0 mi East 8.1 mph - N/A   Clear
7:35 PM 71.6 °F 38.1 °F 30% 30.15 in 10.0 mi Calm Calm - N/A   Clear
7:55 PM 68.7 °F 44.8 °F 42% 30.14 in 10.0 mi ENE 3.5 mph - N/A   Clear
8:15 PM 67.6 °F 43.5 °F 42% 30.14 in 10.0 mi ENE 4.6 mph - N/A   Clear
8:35 PM 67.5 °F 39.6 °F 36% 30.14 in 10.0 mi East 4.6 mph - N/A   Clear
8:55 PM 67.1 °F 38.8 °F 35% 30.15 in 10.0 mi ESE 5.8 mph - N/A   Clear
9:15 PM 66.0 °F 38.7 °F 37% 30.15 in 10.0 mi ESE 5.8 mph - N/A   Clear
9:35 PM 64.8 °F 40.1 °F 40% 30.15 in 10.0 mi ESE 5.8 mph - N/A   Clear
9:55 PM 65.1 °F 39.7 °F 39% 30.17 in 10.0 mi ESE 6.9 mph - N/A   Clear
10:15 PM 64.4 °F 40.3 °F 41% 30.17 in 10.0 mi SSE 5.8 mph - N/A   Clear
10:35 PM 63.5 °F 40.6 °F 43% 30.18 in 10.0 mi South 6.9 mph - N/A   Clear
10:55 PM 62.8 °F 41.0 °F 45% 30.18 in 10.0 mi SSE 5.8 mph - N/A   Clear
11:15 PM 62.8 °F 40.3 °F 44% 30.19 in 10.0 mi SSE 3.5 mph - N/A   Clear
11:35 PM 62.1 °F 40.1 °F 44% 30.19 in 10.0 mi SSE 4.6 mph - N/A   Clear
11:55 PM 61.5 °F 40.1 °F 45% 30.19 in 10.0 mi SSE 4.6 mph - N/A   Clear